Location: Unspecified
(54.1780°N, 0.0000°E)
Time: 21:00:25
(UTC+00:00)

S-56A Canister/Altair - Pass Details

Date: 02 October 2020
Orbit: 632 x 2500 km, 38.9° (Epoch: 20 October)

Event Time Altitude Azimuth Distance (km) Brightness Sun altitude
Rises 19:17:52 0° 275° (W) 6,082 13.8 -16.1°
Reaches altitude 10° 19:23:32 10° 261° (W) 4,882 12.6 -16.9°
Maximum altitude 19:31:49 19° 223° (SW) 3,721 11.3 -18.0°
Drops below altitude 10° 19:38:44 10° 183° (S) 3,954 11.0 -19.0°
Enters shadow 19:42:39 - 167° (SSE) 4,607 11.2 -19.5°
